Content
SEND FEEDBACK

Daily
Averages
Monthly
Summary
United States of America

WABASH, INDIANA


Home > North America > United States > Indiana
Elevation: 237 meters     Latitude: 40 46N     Longitude: 085 49W

WEATHER
 
SELECT A DAY
Number of Records: 167,705;   Date Range: 1/3/95 - 7/27/14
 
SHARE

PRINT THIS DATA

[ ← Previous Day ]
WEATHER ALMANAC - 13 FEBRUARY, 2013
[ Next Day → ]
[ °F ]   °C
Weather ElementAverageHighLow
Temperature-0.4 °C6.7 °C (4:55 pm)-5 °C (7:16 am)
Dewpoint-3.2 °C-0.6 °C (5:55 pm)-5.9 °C (1:55 am)
Humidity83.4 %100 % (7:16 am)56 % (1:55 pm)
Barometer1010.8 hPa1014.6 hPa (1:24 am)1008.1 hPa (3:55 pm)
Wind Speed7.7 km/h16.7 km/h (9:55 pm)
Weather ElementAverage
Visibility15.9 km
Wind DirectionSE (131.9 °)

Weather ElementTotal
Precipitation---
Heating Degree Days17.5 (Base 18.3)
Averaged from 27 records on 13 February, 2013
WEATHER CONDITIONS BREAKOUT
WIND DIRECTION BREAKOUT
WEATHER BY HOUR - 13 FEBRUARY, 2013
[ °F ]   °C
Local TimeTemperatureDewpointHumidityBarometerVisibilityWind DirectionWind SpeedGust SpeedPrecipitationEventsConditions
1:24 AM-4 °C-5 °C93 %1014.6 hPa16.1 kmCalmMostly Cloudy
1:40 AM-4 °C-5 °C93 %1014.2 hPa16.1 kmCalmMostly Cloudy
1:55 AM-4.6 °C-5.9 °C91 %1014.2 hPa16.1 kmCalmScattered Clouds
2:55 AM-3.7 °C-4.8 °C92 %1013.9 hPa16.1 kmCalmOvercast
3:55 AM-3.8 °C-4.7 °C94 %1012.9 hPa16.1 kmCalmOvercast
4:55 AM-3.6 °C-4.6 °C93 %1012.5 hPa16.1 kmCalmOvercast
5:55 AM-4 °C-4.8 °C94 %1011.9 hPa16.1 kmCalmMostly Cloudy
6:55 AM-4.3 °C-4.8 °C96 %1011.5 hPa16.1 kmCalmOvercast
7:16 AM-5 °C-5 °C100 %1011.2 hPa12.9 kmCalmOvercast
7:55 AM-4.3 °C-5.1 °C94 %1010.8 hPa14.5 kmNNE (20°)5.6 km/hOvercast
8:55 AM-3.9 °C-4.5 °C96 %1011.9 hPa16.1 kmSSE (160°)5.6 km/hScattered Clouds
9:55 AM-2.5 °C-3.8 °C91 %1011.5 hPa16.1 kmSSW (200°)5.6 km/hClear
10:30 AM-2 °C-3 °C93 %1010.2 hPa16.1 kmSouth (190°)9.3 km/hClear
10:55 AM-1.1 °C-3 °C87 %1011.5 hPa16.1 kmSouth (180°)9.3 km/hClear
11:55 AM0.8 °C-2.7 °C78 %1010.8 hPa16.1 kmVariable11.1 km/hClear
12:55 PM3.5 °C-3 °C63 %1010.2 hPa16.1 kmSW (230°)11.1 km/hClear
1:55 PM5 °C-3.2 °C56 %1009.1 hPa16.1 kmWSW (240°)11.1 km/hClear
2:55 PM6.1 °C-1.9 °C57 %1008.5 hPa16.1 kmWest (260°)14.8 km/hClear
3:55 PM6.6 °C-1.1 °C58 %1008.1 hPa16.1 kmWSW (250°)14.8 km/hClear
4:55 PM6.7 °C-1 °C58 %1008.1 hPa16.1 kmWest (260°)14.8 km/hClear
5:55 PM5.2 °C-0.6 °C66 %1008.5 hPa16.1 kmWSW (250°)13 km/hClear
6:55 PM1.9 °C-1.3 °C80 %1009.1 hPa16.1 kmWest (260°)11.1 km/hClear
7:55 PM1.2 °C-1.6 °C82 %1009.5 hPa16.1 kmSSW (200°)11.1 km/hClear
8:55 PM0.2 °C-1.6 °C88 %1009.5 hPa16.1 kmSW (220°)13 km/hPartly Cloudy
9:55 PM0.8 °C-1.1 °C87 %1009.8 hPa16.1 kmSSW (210°)16.7 km/hPartly Cloudy
10:55 PM1 °C-1.2 °C85 %1009.8 hPa16.1 kmSW (220°)14.8 km/hMostly Cloudy
11:55 PM0.4 °C-1.4 °C88 %1009.8 hPa16.1 kmSSW (210°)14.8 km/hScattered Clouds
Hourly data recorded from KGUS, located 0 kilometers away from Wabash, Indiana







STORIES FROM OUR PARTNERS